Time,TemperatureF,DewpointF,PressureIn,WindDirection,WindDirectionDegrees,WindSpeedMPH,WindSpeedGustMPH,Humidity,HourlyPrecipIn,Conditions,Clouds,dailyrainin,SolarRadiationWatts/m^2,SoftwareType,DateUTC
2013-01-09 00:00:00,23.0,21.0,-100.00,North,11,1.0,1.0,93,0.00,,,-99.99,0.010000,,2013-01-09 07:00:00,
2013-01-09 00:32:00,23.0,21.0,-100.00,North,11,1.0,1.0,93,0.00,,,-99.99,0.010000,,2013-01-09 07:32:00,
2013-01-09 00:42:00,23.0,21.0,-100.00,North,11,1.0,1.0,93,0.00,,,-99.99,0.010000,,2013-01-09 07:42:00,
2013-01-09 00:52:00,23.0,21.0,-100.00,North,11,1.0,1.0,93,0.00,,,-99.99,0.010000,,2013-01-09 07:52:00,
2013-01-09 01:00:00,23.0,20.0,-100.00,NNE,14,1.0,2.0,89,0.00,,,-99.99,0.010000,,2013-01-09 08:00:00,
2013-01-09 01:32:00,23.0,20.0,-100.00,NNE,14,1.0,2.0,89,0.00,,,-99.99,0.010000,,2013-01-09 08:32:00,
2013-01-09 01:42:00,23.0,20.0,-100.00,NNE,14,1.0,2.0,89,0.00,,,-99.99,0.010000,,2013-01-09 08:42:00,
2013-01-09 01:52:00,23.0,20.0,-100.00,NNE,14,1.0,2.0,89,0.00,,,-99.99,0.010000,,2013-01-09 08:52:00,
2013-01-09 02:00:00,22.0,18.0,-100.00,NNW,342,1.0,2.0,84,0.00,,,-99.99,0.010000,,2013-01-09 09:00:00,
2013-01-09 02:32:00,22.0,18.0,-100.00,NNW,342,1.0,2.0,84,0.00,,,-99.99,0.010000,,2013-01-09 09:32:00,
2013-01-09 02:42:00,22.0,18.0,-100.00,NNW,342,1.0,2.0,84,0.00,,,-99.99,0.010000,,2013-01-09 09:42:00,
2013-01-09 02:53:00,22.0,18.0,-100.00,NNW,342,1.0,2.0,84,0.00,,,-99.99,0.010000,,2013-01-09 09:53:00,
2013-01-09 03:00:00,23.0,15.0,-100.00,North,356,1.0,2.0,70,0.00,,,-99.99,0.020000,,2013-01-09 10:00:00,
2013-01-09 03:32:00,23.0,15.0,-100.00,North,356,1.0,2.0,70,0.00,,,-99.99,0.020000,,2013-01-09 10:32:00,
2013-01-09 03:42:00,23.0,15.0,-100.00,North,356,1.0,2.0,70,0.00,,,-99.99,0.020000,,2013-01-09 10:42:00,
2013-01-09 03:52:00,23.0,15.0,-100.00,North,356,1.0,2.0,70,0.00,,,-99.99,0.020000,,2013-01-09 10:52:00,
2013-01-09 04:00:00,22.0,13.0,-100.00,NE,34,0.0,1.0,67,0.00,,,-99.99,0.010000,,2013-01-09 11:00:00,
2013-01-09 04:32:00,22.0,13.0,-100.00,NE,34,0.0,1.0,67,0.00,,,-99.99,0.010000,,2013-01-09 11:32:00,
2013-01-09 04:42:00,22.0,13.0,-100.00,NE,34,0.0,1.0,67,0.00,,,-99.99,0.010000,,2013-01-09 11:42:00,
2013-01-09 04:52:00,22.0,13.0,-100.00,NE,34,0.0,1.0,67,0.00,,,-99.99,0.010000,,2013-01-09 11:52:00,
2013-01-09 05:00:00,24.0,11.0,-100.00,NNE,33,1.0,1.0,56,0.00,,,-99.99,0.000000,,2013-01-09 12:00:00,
2013-01-09 05:33:00,24.0,11.0,-100.00,NNE,33,1.0,1.0,56,0.00,,,-99.99,0.000000,,2013-01-09 12:33:00,
2013-01-09 05:42:00,24.0,11.0,-100.00,NNE,33,1.0,1.0,56,0.00,,,-99.99,0.000000,,2013-01-09 12:42:00,
2013-01-09 05:52:00,24.0,11.0,-100.00,NNE,33,1.0,1.0,56,0.00,,,-99.99,0.000000,,2013-01-09 12:52:00,
2013-01-09 06:00:00,26.0,8.0,-100.00,NNE,20,1.0,2.0,45,0.00,,,-99.99,0.000000,,2013-01-09 13:00:00,
2013-01-09 06:33:00,26.0,8.0,-100.00,NNE,20,1.0,2.0,45,0.00,,,-99.99,0.000000,,2013-01-09 13:33:00,
2013-01-09 06:42:00,26.0,8.0,-100.00,NNE,20,1.0,2.0,45,0.00,,,-99.99,0.000000,,2013-01-09 13:42:00,
2013-01-09 06:52:00,26.0,8.0,-100.00,NNE,20,1.0,2.0,45,0.00,,,-99.99,0.000000,,2013-01-09 13:52:00,
2013-01-09 07:00:00,27.0,5.0,-100.00,North,353,1.0,1.0,38,0.00,,,-99.99,0.000000,,2013-01-09 14:00:00,
2013-01-09 07:33:00,27.0,5.0,-100.00,North,353,1.0,1.0,38,0.00,,,-99.99,0.000000,,2013-01-09 14:33:00,
2013-01-09 07:43:00,27.0,5.0,-100.00,North,353,1.0,1.0,38,0.00,,,-99.99,0.000000,,2013-01-09 14:43:00,
2013-01-09 07:53:00,27.0,5.0,-100.00,North,353,1.0,1.0,38,0.00,,,-99.99,0.000000,,2013-01-09 14:53:00,
2013-01-09 08:00:00,29.0,4.0,-100.00,NNE,18,1.0,2.0,33,0.00,,,-99.99,1.480000,,2013-01-09 15:00:00,
2013-01-09 08:33:00,29.0,4.0,-100.00,NNE,18,1.0,2.0,33,0.00,,,-99.99,1.480000,,2013-01-09 15:33:00,
2013-01-09 08:42:00,29.0,4.0,-100.00,NNE,18,1.0,2.0,33,0.00,,,-99.99,1.480000,,2013-01-09 15:42:00,
2013-01-09 08:53:00,29.0,4.0,-100.00,NNE,18,1.0,2.0,33,0.00,,,-99.99,1.480000,,2013-01-09 15:53:00,
2013-01-09 09:00:00,32.0,5.0,-100.00,NNW,342,0.0,1.0,31,0.00,,,-99.99,15.800000,,2013-01-09 16:00:00,
2013-01-09 09:33:00,32.0,5.0,-100.00,NNW,342,0.0,1.0,31,0.00,,,-99.99,15.800000,,2013-01-09 16:33:00,
2013-01-09 09:42:00,32.0,5.0,-100.00,NNW,342,0.0,1.0,31,0.00,,,-99.99,15.800000,,2013-01-09 16:42:00,
2013-01-09 09:52:00,32.0,5.0,-100.00,NNW,342,0.0,1.0,31,0.00,,,-99.99,15.800000,,2013-01-09 16:52:00,
2013-01-09 10:32:00,40.0,6.0,-100.00,ESE,104,1.0,2.0,23,0.00,,,-99.99,128.000000,,2013-01-09 17:32:00,
2013-01-09 11:00:00,44.0,-1.0,-100.00,SE,133,4.0,6.0,14,0.00,,,-99.99,443.700012,,2013-01-09 18:00:00,
2013-01-09 11:33:00,44.0,-1.0,-100.00,SE,133,4.0,6.0,14,0.00,,,-99.99,443.700012,,2013-01-09 18:33:00,
2013-01-09 11:43:00,44.0,-1.0,-100.00,SE,133,4.0,6.0,14,0.00,,,-99.99,443.700012,,2013-01-09 18:43:00,
2013-01-09 11:52:00,44.0,-1.0,-100.00,SE,133,4.0,6.0,14,0.00,,,-99.99,443.700012,,2013-01-09 18:52:00,
2013-01-09 13:00:00,45.0,-1.0,-100.00,South,188,2.0,4.0,14,0.00,,,-99.99,630.799988,,2013-01-09 20:00:00,
2013-01-09 13:33:00,45.0,-1.0,-100.00,South,188,2.0,4.0,14,0.00,,,-99.99,630.799988,,2013-01-09 20:33:00,
2013-01-09 13:42:00,45.0,-1.0,-100.00,South,188,2.0,4.0,14,0.00,,,-99.99,630.799988,,2013-01-09 20:42:00,
2013-01-09 13:52:00,45.0,-1.0,-100.00,South,188,2.0,4.0,14,0.00,,,-99.99,630.799988,,2013-01-09 20:52:00,
2013-01-09 14:00:00,45.0,0.0,-100.00,SE,140,2.0,7.0,14,0.00,,,-99.99,633.900024,,2013-01-09 21:00:00,
2013-01-09 14:33:00,45.0,0.0,-100.00,SE,140,2.0,7.0,14,0.00,,,-99.99,633.900024,,2013-01-09 21:33:00,
2013-01-09 14:43:00,45.0,0.0,-100.00,SE,140,2.0,7.0,14,0.00,,,-99.99,633.900024,,2013-01-09 21:43:00,
2013-01-09 14:52:00,45.0,0.0,-100.00,SE,140,2.0,7.0,14,0.00,,,-99.99,633.900024,,2013-01-09 21:52:00,
2013-01-09 15:00:00,44.0,1.0,-100.00,SE,124,4.0,10.0,16,0.00,,,-99.99,529.200012,,2013-01-09 22:00:00,
2013-01-09 15:33:00,44.0,1.0,-100.00,SE,124,4.0,10.0,16,0.00,,,-99.99,529.200012,,2013-01-09 22:33:00,
2013-01-09 15:42:00,44.0,1.0,-100.00,SE,124,4.0,10.0,16,0.00,,,-99.99,529.200012,,2013-01-09 22:42:00,
2013-01-09 15:52:00,44.0,1.0,-100.00,SE,124,4.0,10.0,16,0.00,,,-99.99,529.200012,,2013-01-09 22:52:00,
2013-01-09 16:00:00,41.0,7.0,-100.00,South,189,5.0,11.0,23,0.00,,,-99.99,252.300003,,2013-01-09 23:00:00,
2013-01-09 16:32:00,41.0,7.0,-100.00,South,189,5.0,11.0,23,0.00,,,-99.99,252.300003,,2013-01-09 23:32:00,
2013-01-09 16:42:00,41.0,7.0,-100.00,South,189,5.0,11.0,23,0.00,,,-99.99,252.300003,,2013-01-09 23:42:00,
2013-01-09 16:52:00,41.0,7.0,-100.00,South,189,5.0,11.0,23,0.00,,,-99.99,252.300003,,2013-01-09 23:52:00,
2013-01-09 17:00:00,39.0,7.0,-100.00,SE,125,3.0,10.0,25,0.00,,,-99.99,77.150002,,2013-01-10 00:00:00,
2013-01-09 17:32:00,39.0,7.0,-100.00,SE,125,3.0,10.0,25,0.00,,,-99.99,77.150002,,2013-01-10 00:32:00,
2013-01-09 17:42:00,39.0,7.0,-100.00,SE,125,3.0,10.0,25,0.00,,,-99.99,77.150002,,2013-01-10 00:42:00,
2013-01-09 17:52:00,39.0,7.0,-100.00,SE,125,3.0,10.0,25,0.00,,,-99.99,77.150002,,2013-01-10 00:52:00,
2013-01-09 18:00:00,38.0,8.0,-100.00,SE,141,5.0,9.0,28,0.00,,,-99.99,4.510000,,2013-01-10 01:00:00,
2013-01-09 18:32:00,38.0,8.0,-100.00,SE,141,5.0,9.0,28,0.00,,,-99.99,4.510000,,2013-01-10 01:32:00,
2013-01-09 18:42:00,38.0,8.0,-100.00,SE,141,5.0,9.0,28,0.00,,,-99.99,4.510000,,2013-01-10 01:42:00,
2013-01-09 18:52:00,38.0,8.0,-100.00,SE,141,5.0,9.0,28,0.00,,,-99.99,4.510000,,2013-01-10 01:52:00,
2013-01-09 19:00:00,38.0,8.0,-100.00,SSE,159,3.0,9.0,28,0.00,,,-99.99,0.000000,,2013-01-10 02:00:00,
2013-01-09 19:32:00,38.0,8.0,-100.00,SSE,159,3.0,9.0,28,0.00,,,-99.99,0.000000,,2013-01-10 02:32:00,
2013-01-09 19:42:00,38.0,8.0,-100.00,SSE,159,3.0,9.0,28,0.00,,,-99.99,0.000000,,2013-01-10 02:42:00,
2013-01-09 19:52:00,38.0,8.0,-100.00,SSE,159,3.0,9.0,28,0.00,,,-99.99,0.000000,,2013-01-10 02:52:00,
2013-01-09 20:00:00,38.0,9.0,-100.00,SE,141,2.0,4.0,29,0.00,,,-99.99,0.000000,,2013-01-10 03:00:00,
2013-01-09 20:32:00,38.0,9.0,-100.00,SE,141,2.0,4.0,29,0.00,,,-99.99,0.000000,,2013-01-10 03:32:00,
2013-01-09 20:42:00,38.0,9.0,-100.00,SE,141,2.0,4.0,29,0.00,,,-99.99,0.000000,,2013-01-10 03:42:00,
2013-01-09 20:52:00,38.0,9.0,-100.00,SE,141,2.0,4.0,29,0.00,,,-99.99,0.000000,,2013-01-10 03:52:00,
2013-01-09 21:00:00,39.0,8.0,-100.00,SE,134,3.0,5.0,28,0.00,,,-99.99,0.000000,,2013-01-10 04:00:00,
2013-01-09 21:32:00,39.0,8.0,-100.00,SE,134,3.0,5.0,28,0.00,,,-99.99,0.000000,,2013-01-10 04:32:00,
2013-01-09 21:42:00,39.0,8.0,-100.00,SE,134,3.0,5.0,28,0.00,,,-99.99,0.000000,,2013-01-10 04:42:00,
2013-01-09 21:52:00,39.0,8.0,-100.00,SE,134,3.0,5.0,28,0.00,,,-99.99,0.000000,,2013-01-10 04:52:00,
2013-01-09 22:00:00,39.0,8.0,-100.00,South,188,4.0,11.0,27,0.00,,,-99.99,0.000000,,2013-01-10 05:00:00,
2013-01-09 22:33:00,39.0,8.0,-100.00,South,188,4.0,11.0,27,0.00,,,-99.99,0.000000,,2013-01-10 05:33:00,
2013-01-09 22:42:00,39.0,8.0,-100.00,South,188,4.0,11.0,27,0.00,,,-99.99,0.000000,,2013-01-10 05:42:00,
2013-01-09 22:52:00,39.0,8.0,-100.00,South,188,4.0,11.0,27,0.00,,,-99.99,0.000000,,2013-01-10 05:52:00,
2013-01-09 23:00:00,38.0,7.0,-100.00,WSW,247,3.0,7.0,26,0.00,,,-99.99,0.000000,,2013-01-10 06:00:00,
2013-01-09 23:32:00,38.0,7.0,-100.00,WSW,247,3.0,7.0,26,0.00,,,-99.99,0.000000,,2013-01-10 06:32:00,
2013-01-09 23:42:00,38.0,7.0,-100.00,WSW,247,3.0,7.0,26,0.00,,,-99.99,0.000000,,2013-01-10 06:42:00,
2013-01-09 23:52:00,38.0,7.0,-100.00,WSW,247,3.0,7.0,26,0.00,,,-99.99,0.000000,,2013-01-10 06:52:00,